Location: Molveno
(46.1500°N, 10.9667°E)
Time: 16:39:35
(UTC+00:00)

Atlas Centaur 2 - Pass Details

Date: 05 July 2020
Orbit: 459 x 1310 km, 30.4° (Epoch: 10 August)

Event Time Altitude Azimuth Distance (km) Brightness Sun altitude
Rises 22:16:34 0° 249° (WSW) 3,597 5.4 -19.7°
Reaches altitude 10° 22:20:07 10° 229° (SW) 2,819 4.7 -19.8°
Enters shadow 22:21:25 13° 219° (SW) 2,641 4.4 -19.9°
